Terminal Aerodrome Forecast
Issued by NWS Blacksburg, VA

Current Version | Previous Version | Graphics & Text | Print | Product List | Glossary On
Versions: 1 2 3 4 5 6 7 8 9 10 11 12 13 14 15 16 17 18 19 20 21 22 23 24 25 26 27 28 29 30 31 32 33 34 35 36 37 38
000
FTUS41 KRNK 212014 AAB
TAFBLF
TAF AMD
KBLF 212014Z 2120/2218 28010KT P6SM VCSH BKN007 OVC018
      TEMPO 2123/2203 3SM -DZ BR OVC004
     FM220800 30010KT 5SM BR BKN007
      TEMPO 2208/2212 1SM BR
     FM221400 31008G16KT P6SM SCT030=

USA.gov is the U.S. government's official web portal to all federal, state and local government web resources and services.